Tracking 19832 objects as of 24-Aug-2019
HD Live streaming from Space Station
objects crossing your sky now

GORIZONT 32

Track GORIZONT 32 now!
GORIZONT 32 is classified as:


NORAD ID: 23880
Int'l Code: 1996-034A
Perigee: 35,771.6 km
Apogee: 35,875.1 km
Inclination: 14.4 °
Period: 1,437.6 minutes
Semi major axis: 42194 km
RCS: 17.7827 m2 (large)
Launch date: May 25, 1996
Source: Commonwealth of Independent States (former USSR) (CIS)
Launch site: TYURATAM MISSILE AND SPACE COMPLEX (TTMTR)

Telecommunications; augment television channels available to the people of Siberia.
aabbcc
Your satellite tracking list
Your tracking list is empty




NASA's NSSDC Master Catalog

Two Line Element Set (TLE):
1 23880U 96034A   19235.50461190 +.00000100 +00000-0 +00000-0 0  9990
2 23880 014.3594 014.8869 0012265 313.8122 037.6017 01.00166365085107
Source of the keplerian elements: AFSPC